User: anonymous   Login
Location: Unspecified
(0.0000°N, 0.0000°E)
Time: 05:42:30
(UTC+02:00)
Language:

ATLAS 2AS CENTAUR R/B - Orbit

View from above orbital plane
View from above orbital plane
View from above satellite
View from above satellite

Ground track
Ground track

The orbit data is extracted from the following two-line orbital elements,

1 28096U 03054B   16262.16254720 0.00000000  00000-0  00000-0 0    04
2 28096  63.6674  25.3924 0270000 269.8044  90.1956 13.40813326    07
Epoch (UTC): 18 September 2016 03:54:04
Eccentricity: 0.0270000
inclination: 63.6674°
perigee height: 904 km
apogee height: 1308 km
right ascension of ascending node: 25.3924°
argument of perigee: 269.8044°
revolutions per day: 13.40813326
mean anomaly at epoch: 90.1956°
orbit number at epoch: 0

The dashed part of the orbit path shows where the satellite is in the earth's shadow,  

DLR